Location: Gleizolles
(44.4833°N, 6.7667°E)
Time: 02:27:00
(UTC+00:00)

X-37B - Pass Details

Date: 10 December 2021
Orbit: 334 x 337 km, 45.0° (Epoch: 11 January)

Event Time Altitude Azimuth Distance (km) Brightness Sun altitude
Rises 16:38:23 0° 240° (WSW) 2,097 6.7 -7.9°
Reaches altitude 10° 16:40:25 10° 233° (SW) 1,263 4.7 -8.3°
Maximum altitude 16:43:08 44° 159° (SSE) 470 1.0 -8.7°
Enters shadow 16:45:33 12° 87° (E) 1,139 2.4 -9.1°
